TimeEDT,TemperatureF,Dew PointF,Humidity,Sea Level PressureIn,VisibilityMPH,Wind Direction,Wind SpeedMPH,Gust SpeedMPH,PrecipitationIn,Events,Conditions,WindDirDegrees,DateUTC
12:53 AM,42.1,28.9,60,30.09,10.0,NW,4.6,-,N/A,,Overcast,320,2013-03-30 04:53:00
1:53 AM,41.0,28.0,60,30.09,10.0,NW,3.5,-,N/A,,Mostly Cloudy,320,2013-03-30 05:53:00
2:53 AM,39.0,28.9,67,30.09,10.0,Calm,Calm,-,N/A,,Overcast,0,2013-03-30 06:53:00
3:53 AM,37.9,28.0,68,30.09,10.0,NNW,5.8,-,N/A,,Scattered Clouds,330,2013-03-30 07:53:00
4:53 AM,35.1,27.0,72,30.09,10.0,Calm,Calm,-,N/A,,Clear,0,2013-03-30 08:53:00
5:53 AM,30.9,27.0,85,30.09,10.0,Calm,Calm,-,N/A,,Scattered Clouds,0,2013-03-30 09:53:00
6:53 AM,32.0,26.1,79,30.11,10.0,Calm,Calm,-,N/A,,Clear,0,2013-03-30 10:53:00
7:53 AM,36.0,30.0,79,30.12,10.0,Calm,Calm,-,N/A,,Clear,0,2013-03-30 11:53:00
8:53 AM,45.0,28.9,53,30.12,10.0,NNE,5.8,-,N/A,,Clear,20,2013-03-30 12:53:00
9:53 AM,50.0,26.1,39,30.11,10.0,NW,8.1,-,N/A,,Clear,320,2013-03-30 13:53:00
10:53 AM,51.1,23.0,33,30.11,10.0,WNW,10.4,16.1,N/A,,Clear,300,2013-03-30 14:53:00
11:53 AM,53.1,19.0,26,30.09,10.0,North,10.4,23.0,N/A,,Scattered Clouds,350,2013-03-30 15:53:00
12:53 PM,53.1,18.0,25,30.08,10.0,West,10.4,-,N/A,,Partly Cloudy,280,2013-03-30 16:53:00
1:53 PM,55.0,15.1,21,30.06,10.0,NNW,12.7,20.7,N/A,,Partly Cloudy,330,2013-03-30 17:53:00
2:53 PM,55.9,15.1,20,30.05,10.0,WNW,8.1,21.9,N/A,,Clear,290,2013-03-30 18:53:00
3:53 PM,55.9,15.1,20,30.04,10.0,WNW,13.8,17.3,N/A,,Partly Cloudy,290,2013-03-30 19:53:00
4:53 PM,57.0,16.0,20,30.04,10.0,North,10.4,19.6,N/A,,Partly Cloudy,350,2013-03-30 20:53:00
5:53 PM,55.0,15.1,21,30.05,10.0,NW,15.0,-,N/A,,Partly Cloudy,310,2013-03-30 21:53:00
6:53 PM,52.0,18.0,26,30.06,10.0,WNW,8.1,-,N/A,,Clear,300,2013-03-30 22:53:00
7:53 PM,48.0,19.0,32,30.08,10.0,WNW,5.8,-,N/A,,Clear,290,2013-03-30 23:53:00
8:53 PM,41.0,26.1,55,30.10,10.0,Calm,Calm,-,N/A,,Clear,0,2013-03-31 00:53:00
9:53 PM,37.9,25.0,60,30.11,10.0,Calm,Calm,-,N/A,,Clear,0,2013-03-31 01:53:00
10:53 PM,36.0,21.9,57,30.11,10.0,Calm,Calm,-,N/A,,Clear,0,2013-03-31 02:53:00
11:53 PM,32.0,21.9,66,30.12,10.0,Calm,Calm,-,N/A,,Clear,0,2013-03-31 03:53:00